SCP
0 0 0 -0 -0 -0 -0 -0 -0 -0 -0 0 0 0 0 0 0 0 0 0 0 0 0 0 0 0 0 0 0 0 0 0
0 0 0 0 0 0 0 0 0 0 -0 -0 0 0 0 0 0 0 0 0 0 0 0 0 0 0 0 0 0 0 0 0
0 0 0 0 0 0 0 0 0 0 0 0 0 -0 -0 -0 0 0 0 0 0 0 0 0 0 0 0 0 0 0 0 0
0 0 0 0 0 0 0 0 0 0 0 0 0 0 0 -0 -0 0 0 0 0 0 0 0 0 0 0 0 0 0 0 0
0 0 0 0 0 0 0 0 0 0 0 0 0 0 -0 0 -0 0 0 0 0 0 0 0 0 0 0 0 0 0 0 0
-0 0 0 0 0 0 0 0 0 0 0 0 0 0 -0 -0 -0 0 0 0 -0 0 0 0 0 0 0 0 0 0 0 0
0 0 -0 -0 0 0 0 0 0 0 0 0 -0 -0 0 0 0 -0 0 0 0 0 0 0 0 0 0 0 0 0 0 0
-0 -0 -0 -0 -0 -0 0 0 0 0 0 0 0 0 0 0 0 0 0 0 0 0 0 0 0 -0 0 0 0 0 0 0
-0 -0 -0 -0 -0 -0 0 0 0 0 0 0 0 0 0 0 0 -0 -0 -0 0 0 0 0 0 -0 -0 -0 0 0 0 0
-0 -0 -0 -0 -0 0 0 0 0 0 0 0 0 0 0 0 -0 0 -0 0 0 0 0 0 0 0 -0 -0 0 0 0 0
0 0 0 0 0 -0 0 0 0 0 0 0 0 0 0 0 0 -0 -0 0 -0 -0 0 0 0 0 0 0 0 0 0 0
0 0 0 0 0 0 0 0 0 0 0 0 0 0 0 0 0 0 0 -0 -0 -0 -0 0 0 0 0 0 0 0 0 0
0 0 0 0 0 0 0 0 0 0 0 0 0 0 0 0 0 0 0 0 0 -0 -0 -0 -0 -0 -0 -0 0 0 0 0
0 0 0 0 0 0 0 0 0 0 0 0 0 0 0 0 0 0 0 0 0 0 0 -0 -0 -0 -0 -0 -0 0 0 0
0 0 0 0 0 0 0 0 0 0 0 0 0 0 0 0 0 0 0 0 0 0 0 -0 -0 -0 -0 0 0 0 0 0
0 0 0 0 0 0 0 0 0 0 0 0 0 0 0 0 0 0 0 0 0 0 0 0 0 -0 0 0 0 0 0 0
0 0 0 0 0 0 0 0 0 0 0 0 0 0 0 0 0 0 0 0 0 0 0 0 0 0 0 0 0 0 -0 0
0 0 0 0 0 0 0 0 0 0 0 0 0 0 0 0 0 0 0 0 0 0 0 0 0 0 0 0 0 0 0 0
0 0 0 0 0 0 0 0 0 0 0 0 0 0 0 0 0 0 0 0 0 0 0 0 0 0 0 0 0 0 0 0
0 0 0 0 0 0 0 0 0 0 0 0 0 0 0 0 0 0 0 0 0 0 0 0 0 0 0 0 0 0 0 0
Wind_Speed_500mb
40 45 49 55 56 54 54 53 51 49 47 46 48 48 45 46 47 48 45 48 55 60 66 72 80 97 117 123 121 119 117 112
40 43 46 46 49 51 56 59 58 57 55 54 52 50 50 47 46 48 51 48 48 54 62 68 75 84 98 117 122 123 120 120
31 35 37 41 46 49 49 53 57 57 55 53 55 57 56 57 57 55 53 56 57 51 58 65 73 79 90 99 117 126 126 126
22 26 31 41 43 45 49 51 53 56 57 58 56 53 56 58 57 58 59 56 59 61 58 62 71 79 88 94 101 116 124 127
22 27 29 34 41 46 46 50 54 58 61 61 64 64 59 58 61 59 59 62 58 55 63 62 67 75 80 90 101 108 114 121
20 28 35 40 44 49 49 50 54 57 61 65 69 68 68 70 68 65 64 63 62 62 51 58 68 74 74 83 94 105 112 113
28 34 38 39 40 44 50 54 57 60 62 66 71 74 76 78 74 78 76 74 70 67 64 59 57 67 67 76 90 89 106 114
30 32 34 43 46 49 52 52 55 63 70 73 76 79 81 84 89 86 85 82 83 79 75 72 63 59 63 69 83 84 94 107
37 37 38 47 50 55 62 65 67 69 70 74 83 88 91 94 93 96 98 94 94 92 90 85 84 65 59 66 70 82 89 95
55 63 67 66 64 73 81 80 79 81 80 78 80 85 90 98 104 103 104 108 104 102 99 94 91 82 72 60 72 82 90 90
63 73 80 82 84 83 83 84 87 90 93 95 97 96 95 95 99 109 116 117 118 117 108 105 101 87 82 70 70 81 88 92
65 80 84 89 92 96 94 86 72 76 96 107 110 113 118 119 114 111 112 121 128 124 122 114 105 97 87 80 73 83 86 93
82 88 91 91 90 98 104 94 81 78 85 92 106 115 122 121 127 125 120 116 121 129 127 121 114 102 92 83 82 77 87 89
83 91 93 96 93 96 111 105 111 112 114 105 98 99 104 105 109 105 106 104 114 115 107 110 98 104 91 84 76 75 81 86
81 91 102 103 104 99 104 108 112 114 111 99 91 90 87 86 85 85 87 87 85 90 92 87 79 88 85 81 72 66 70 81
79 93 105 103 101 98 99 96 96 94 90 85 82 80 81 78 77 78 81 77 81 83 79 80 77 75 62 65 64 54 61 71
83 89 93 91 94 95 88 81 83 88 84 80 82 82 80 81 85 76 75 78 83 88 90 98 93 80 74 64 59 47 42 72
81 83 84 87 91 88 77 73 77 82 84 84 82 81 80 79 80 84 80 66 69 72 76 80 88 82 79 71 66 51 49 84
73 75 78 84 87 77 69 72 75 77 80 83 82 82 81 81 81 79 77 78 78 60 57 60 58 63 69 74 60 55 60 89
69 75 77 80 81 73 72 71 74 76 78 78 82 82 82 83 82 79 76 76 73 74 53 37 39 45 54 56 64 55 60 77
Wind_Direction_500mb
9 7 4 1 1 358 359 358 0 3 3 2 354 348 338 323 311 297 289 287 284 280 273 265 259 253 246 244 242 240 238 236
5 359 355 353 352 353 351 350 350 349 350 353 354 351 350 346 335 313 297 288 280 279 275 269 264 258 254 247 245 243 240 238
4 358 356 354 351 350 348 348 350 350 345 341 341 344 345 343 342 340 324 302 289 279 273 272 266 262 259 255 249 245 242 240
360 359 354 350 346 346 346 346 345 344 345 344 342 334 331 337 337 334 333 331 309 290 281 274 269 265 261 259 256 253 248 245
347 347 348 348 344 343 344 343 340 339 338 339 339 340 340 334 331 330 328 324 327 313 292 282 277 269 264 262 260 256 253 249
333 336 336 333 333 330 334 336 335 335 334 333 332 331 331 332 330 329 325 322 317 316 313 291 280 276 270 266 261 259 257 253
326 325 326 324 318 318 320 324 328 327 327 326 325 325 326 328 328 328 328 325 320 314 310 303 291 278 276 277 269 262 258 255
309 301 298 314 310 312 312 311 312 313 315 317 318 318 319 320 320 322 323 323 322 319 313 303 299 298 281 270 269 265 261 258
315 310 302 302 302 308 310 306 305 303 302 304 308 310 312 312 313 315 317 317 316 316 313 307 299 297 295 272 266 264 261 259
318 318 315 312 312 314 312 310 306 304 302 301 299 298 300 303 306 308 309 309 310 308 307 305 298 294 291 286 268 259 258 257
307 311 311 312 313 312 309 308 307 307 304 303 301 298 294 293 294 298 301 300 301 301 300 299 297 292 286 282 266 261 257 254
305 309 307 309 310 308 309 305 301 297 300 299 298 297 297 295 292 289 288 290 293 293 294 294 293 291 285 277 264 259 254 249
304 304 304 307 310 308 307 308 302 297 293 290 292 293 293 293 292 290 288 285 282 287 288 288 289 289 282 278 273 260 248 246
303 304 306 309 309 306 305 303 302 298 295 293 291 288 289 289 290 288 288 286 282 280 282 282 282 285 282 276 272 269 246 249
305 307 307 308 308 307 306 306 304 299 296 295 293 291 287 285 283 282 281 280 276 276 275 278 275 277 276 275 272 265 254 242
307 309 309 312 311 312 313 312 308 304 300 299 297 294 291 286 281 278 275 272 273 271 271 270 273 270 273 274 275 266 262 239
312 313 314 315 314 315 317 315 311 307 302 299 297 295 292 289 288 285 278 275 271 269 267 271 269 268 267 266 268 259 251 229
317 316 319 318 315 319 319 315 309 304 304 302 297 293 291 289 287 288 293 284 276 272 269 266 266 262 260 259 259 254 228 222
318 322 323 322 320 322 320 316 311 311 310 303 298 295 292 289 287 286 285 288 290 288 276 272 265 259 248 252 250 249 223 216
324 332 328 324 327 329 323 319 316 313 311 309 306 299 296 293 287 284 283 283 285 293 295 264 248 258 251 241 234 238 229 211
Wind_Speed_850mb
40 45 49 55 56 54 54 53 51 49 47 46 48 48 45 46 47 48 45 48 55 60 66 72 80 97 117 123 121 119 117 112
40 43 46 46 49 51 56 59 58 57 55 54 52 50 50 47 46 48 51 48 48 54 62 68 75 84 98 117 122 123 120 120
31 35 37 41 46 49 49 53 57 57 55 53 55 57 56 57 57 55 53 56 57 51 58 65 73 79 90 99 117 126 126 126
22 26 31 41 43 45 49 51 53 56 57 58 56 53 56 58 57 58 59 56 59 61 58 62 71 79 88 94 101 116 124 127
22 27 29 34 41 46 46 50 54 58 61 61 64 64 59 58 61 59 59 62 58 55 63 62 67 75 80 90 101 108 114 121
20 28 35 40 44 49 49 50 54 57 61 65 69 68 68 70 68 65 64 63 62 62 51 58 68 74 74 83 94 105 112 113
28 34 38 39 40 44 50 54 57 60 62 66 71 74 76 78 74 78 76 74 70 67 64 59 57 67 67 76 90 89 106 114
30 32 34 43 46 49 52 52 55 63 70 73 76 79 81 84 89 86 85 82 83 79 75 72 63 59 63 69 83 84 94 107
37 37 38 47 50 55 62 65 67 69 70 74 83 88 91 94 93 96 98 94 94 92 90 85 84 65 59 66 70 82 89 95
55 63 67 66 64 73 81 80 79 81 80 78 80 85 90 98 104 103 104 108 104 102 99 94 91 82 72 60 72 82 90 90
63 73 80 82 84 83 83 84 87 90 93 95 97 96 95 95 99 109 116 117 118 117 108 105 101 87 82 70 70 81 88 92
65 80 84 89 92 96 94 86 72 76 96 107 110 113 118 119 114 111 112 121 128 124 122 114 105 97 87 80 73 83 86 93
82 88 91 91 90 98 104 94 81 78 85 92 106 115 122 121 127 125 120 116 121 129 127 121 114 102 92 83 82 77 87 89
83 91 93 96 93 96 111 105 111 112 114 105 98 99 104 105 109 105 106 104 114 115 107 110 98 104 91 84 76 75 81 86
81 91 102 103 104 99 104 108 112 114 111 99 91 90 87 86 85 85 87 87 85 90 92 87 79 88 85 81 72 66 70 81
79 93 105 103 101 98 99 96 96 94 90 85 82 80 81 78 77 78 81 77 81 83 79 80 77 75 62 65 64 54 61 71
83 89 93 91 94 95 88 81 83 88 84 80 82 82 80 81 85 76 75 78 83 88 90 98 93 80 74 64 59 47 42 72
81 83 84 87 91 88 77 73 77 82 84 84 82 81 80 79 80 84 80 66 69 72 76 80 88 82 79 71 66 51 49 84
73 75 78 84 87 77 69 72 75 77 80 83 82 82 81 81 81 79 77 78 78 60 57 60 58 63 69 74 60 55 60 89
69 75 77 80 81 73 72 71 74 76 78 78 82 82 82 83 82 79 76 76 73 74 53 37 39 45 54 56 64 55 60 77
Wind_Direction_850mb
9 7 4 1 1 358 359 358 0 3 3 2 354 348 338 323 311 297 289 287 284 280 273 265 259 253 246 244 242 240 238 236
5 359 355 353 352 353 351 350 350 349 350 353 354 351 350 346 335 313 297 288 280 279 275 269 264 258 254 247 245 243 240 238
4 358 356 354 351 350 348 348 350 350 345 341 341 344 345 343 342 340 324 302 289 279 273 272 266 262 259 255 249 245 242 240
360 359 354 350 346 346 346 346 345 344 345 344 342 334 331 337 337 334 333 331 309 290 281 274 269 265 261 259 256 253 248 245
347 347 348 348 344 343 344 343 340 339 338 339 339 340 340 334 331 330 328 324 327 313 292 282 277 269 264 262 260 256 253 249
333 336 336 333 333 330 334 336 335 335 334 333 332 331 331 332 330 329 325 322 317 316 313 291 280 276 270 266 261 259 257 253
326 325 326 324 318 318 320 324 328 327 327 326 325 325 326 328 328 328 328 325 320 314 310 303 291 278 276 277 269 262 258 255
309 301 298 314 310 312 312 311 312 313 315 317 318 318 319 320 320 322 323 323 322 319 313 303 299 298 281 270 269 265 261 258
315 310 302 302 302 308 310 306 305 303 302 304 308 310 312 312 313 315 317 317 316 316 313 307 299 297 295 272 266 264 261 259
318 318 315 312 312 314 312 310 306 304 302 301 299 298 300 303 306 308 309 309 310 308 307 305 298 294 291 286 268 259 258 257
307 311 311 312 313 312 309 308 307 307 304 303 301 298 294 293 294 298 301 300 301 301 300 299 297 292 286 282 266 261 257 254
305 309 307 309 310 308 309 305 301 297 300 299 298 297 297 295 292 289 288 290 293 293 294 294 293 291 285 277 264 259 254 249
304 304 304 307 310 308 307 308 302 297 293 290 292 293 293 293 292 290 288 285 282 287 288 288 289 289 282 278 273 260 248 246
303 304 306 309 309 306 305 303 302 298 295 293 291 288 289 289 290 288 288 286 282 280 282 282 282 285 282 276 272 269 246 249
305 307 307 308 308 307 306 306 304 299 296 295 293 291 287 285 283 282 281 280 276 276 275 278 275 277 276 275 272 265 254 242
307 309 309 312 311 312 313 312 308 304 300 299 297 294 291 286 281 278 275 272 273 271 271 270 273 270 273 274 275 266 262 239
312 313 314 315 314 315 317 315 311 307 302 299 297 295 292 289 288 285 278 275 271 269 267 271 269 268 267 266 268 259 251 229
317 316 319 318 315 319 319 315 309 304 304 302 297 293 291 289 287 288 293 284 276 272 269 266 266 262 260 259 259 254 228 222
318 322 323 322 320 322 320 316 311 311 310 303 298 295 292 289 287 286 285 288 290 288 276 272 265 259 248 252 250 249 223 216
324 332 328 324 327 329 323 319 316 313 311 309 306 299 296 293 287 284 283 283 285 293 295 264 248 258 251 241 234 238 229 211